Regional Weather Roundup
Issued by NWS Tiyan, Guam

Home | Current Version | Previous Version | Text Only | Print | Product List | Glossary On
Versions: 1 2 3 4 5 6 7 8 9 10 11 12 13 14 15 16 17 18 19 20 21 22 23 24 25 26 27 28 29 30 31 32 33 34 35 36 37 38 39 40 41 42 43 44 45 46 47 48 49 50
000
ASGM40 PGUM 120312
RWRGUM
WEATHER ROUNDUP FOR THE MARIANAS
NATIONAL WEATHER SERVICE TIYAN GU
100 PM CHST SAT JUL 12 2014

GUZ001>004-120400-
MARIANA ISLANDS-

CITY           SKY/WX    TMP DP  RH WIND       PRES   REMARKS
GUAM AIRPORT   MOSUNNY   82  75  78 S9        29.79F
ANDERSEN AFB   PTSUNNY   82  75  78 SE14      29.79F
ROTA AIRPORT   PTSUNNY   82  77  83 SE15      29.79F HX  91
TINIAN AP      PTSUNNY   86  77  74 E17       29.78S HX  97
SAIPAN AP      MOSUNNY   88  79  74 SE16G25   29.80S HX 102

$$




USA.gov is the U.S. government's official web portal to all federal, state and local government web resources and services.